Location: Castiglione Fibocchi
(43.5333°N, 11.7667°E)
Time: 17:58:58
(UTC+00:00)

Cosmos 2082 Rocket - Pass Details

Date: 15 August 2020
Orbit: 835 x 852 km, 71.0° (Epoch: 17 September)

Event Time Altitude Azimuth Distance (km) Brightness Sun altitude
Rises 03:26:23 0° 342° (NNW) 3,400 5.5 -9.3°
Reaches altitude 10° 03:29:09 10° 353° (N) 2,460 4.9 -8.9°
Maximum altitude 03:34:03 30° 54° (NE) 1,472 4.5 -8.1°
Drops below altitude 10° 03:38:55 10° 114° (ESE) 2,443 5.2 -7.3°
Sets 03:41:39 0° 125° (SE) 3,373 5.7 -6.9°
